Overview Statistics Trail Chart Weather Telemetry Raw packets
 

This is the latest recevied weather packets stored in our database for station/object IZ5TJI-3. If no packets are shown the sender has not sent any weather packets the latest 10 day(s).

<< 1 2 3 4 >>
Time Temp. Humidity Pressure Rain* Wind** Luminosity Snow
1788612224 31.11° C 48% 1015.7 hPa 0 mm - - -
1788611324 30.56° C 50% 1015.7 hPa 0 mm - - -
1788610424 30.56° C 52% 1015.9 hPa 0 mm - - -
1788609524 30° C 55% 1016 hPa 0 mm - - -
1788608624 30° C 54% 1016.2 hPa 0 mm - - -
1788607724 30° C 56% 1016.3 hPa 0 mm - - -
1788606824 29.44° C 58% 1016.4 hPa 0 mm - - -
1788605924 29.44° C 57% 1016.3 hPa 0 mm - - -
1788605024 28.89° C 58% 1016.3 hPa 0 mm - - -
1788604124 28.89° C 60% 1016.5 hPa 0 mm - - -
1788603224 28.33° C 62% 1016.5 hPa 0 mm - - -
1788602324 27.78° C 64% 1016.6 hPa 0 mm - - -
1788601424 27.22° C 65% 1016.8 hPa 0 mm - - -
1788600524 27.22° C 67% 1016.8 hPa 0 mm - - -
1788599624 26.67° C 66% 1016.9 hPa 0 mm - - -
1788598724 26.11° C 66% 1016.6 hPa 0 mm - - -
1788597824 25.56° C 66% 1016.8 hPa 0 mm - - -
1788596924 24.44° C 66% 1016.5 hPa 0 mm - - -
1788596024 24.44° C 67% 1016.6 hPa 0 mm - - -
1788595124 23.89° C 67% 1016.8 hPa 0 mm - - -
1788594224 22.78° C 72% 1016.8 hPa 0 mm - - -
1788593324 22.22° C 73% 1016.4 hPa 0 mm - - -
1788592424 21.67° C 75% 1016.4 hPa 0 mm - - -
1788591524 21.11° C 79% 1016.2 hPa 0 mm - - -
1788590658 20° C 82% 1016.3 hPa 0 mm - - -

* Rain latest hour (hover to see other rain measurements)
** Current wind speed in m/s (hover to see current wind gust speed)